Regional Weather Roundup
Issued by NWS

Home | Current Version | Previous Version | Text Only | Print | Product List | Glossary Off
Versions: 1 2 3 4 5 6 7 8 9 10 11 12 13 14 15 16 17 18 19 20 21 22 23 24 25 26 27 28 29 30 31 32 33 34 35 36 37 38 39 40 41 42 43 44 45 46 47 48 49 50

000
ASUS43 KLSX 212207
RWRMO

WEATHER SUMMARY FOR MISSOURI
NATIONAL WEATHER SERVICE SPRINGFIELD MO
400 PM CST TUE NOV 21 2017

NOTE: "FAIR" INDICATES FEW OR NO CLOUDS BELOW 12,000 FEET WITH NO
       SIGNIFICANT WEATHER AND/OR OBSTRUCTIONS TO VISIBILITY.
       CURRENT SKY AND/OR WEATHER CONDITIONS ARE NOT AVAILABLE FOR
       CHILLICOTHE AND FARMINGTON.

MOZ001>031-035>038-043-044-053-054-212300-
...NORTHERN AND WESTERN MISSOURI...

CITY           SKY/WX    TMP DP  RH WIND       PRES   REMARKS
KANSAS CTY INT CLEAR     40  17  39 N17G24    30.23R
KANSAS C DTWN  CLEAR     44  15  31 NW13G25   30.23R
LEE`S SUMMIT   CLEAR     44  14  29 N22       30.21R
ST JOSEPH      CLEAR     37  16  42 N20       30.27R WCI  27
CHILLICOTHE      N/A     41  19  41 NW12G22   30.23R
KIRKSVILLE     CLEAR     37  19  48 NW15      30.18R WCI  28

$$
MOZ066>068-077>081-088>096-101>105-212300-
...SOUTHWEST MISSOURI...

CITY           SKY/WX    TMP DP  RH WIND       PRES   REMARKS
SPRINGFIELD    CLEAR     54  35  48 N17G26    30.09R
JOPLIN         SUNNY     55  35  47 N18G26    30.14R
BRANSON        PTCLDY    57  34  41 NW15      30.07R

$$
MOZ032>034-039>042-045>050-055>058-069>072-212300-
...CENTRAL MISSOURI...

CITY           SKY/WX    TMP DP  RH WIND       PRES   REMARKS
COLUMBIA       CLEAR     49  23  36 NW16      30.12R
JEFFERSON CITY CLEAR     51  22  31 N10       30.13R
ROLLA          CLEAR     52  32  46 N12       30.08R
SEDALIA        CLEAR     49  16  26 N17       30.17R
WHITEMAN AFB   CLEAR     48  14  25 N20G26    30.12R
WARRENSBURG    CLEAR     46  12  25 NW16G24   30.18R
OSAGE BEACH    CLEAR     50  24  36 N10G16    30.13R

$$
MOZ051-052-059>065-212300-
...EAST CENTRAL MISSOURI...

CITY           SKY/WX    TMP DP  RH WIND       PRES   REMARKS
ST LOUIS INTL  CLOUDY    48  21  34 NW21G28   30.08R
SPIRIT OF STL  CLOUDY    49  26  41 NW14      30.09R
ST CHARLES     CLOUDY    47  22  37 NW18      30.09R

$$
MOZ072>076-082>087-097>100-106>115-212300-
...SOUTH CENTRAL AND SOUTHEAST MISSOURI...

CITY           SKY/WX    TMP DP  RH WIND       PRES   REMARKS
CAPE GIRARDEAU CLEAR     55  41  59 CALM      30.01R
FARMINGTON     CLOUDY    55  33  43 NW10      30.03R
POPLAR BLUFF   CLEAR     56  40  55 SW7       30.01R
WEST PLAINS    MOCLDY    58  33  39 N6        30.04R

$$



USA.gov is the U.S. government's official web portal to all federal, state and local government web resources and services.